owner,sensor,date,latitude,longitude,vertical_datum,sea_water_temperature,qcFlag 
DISL,ioos:station:DISL:KATA:1,2013-07-01T19:30:00Z,30.2583,-88.2131,0.0,29.73,2 
DISL,ioos:station:DISL:KATA:1,2013-07-01T20:00:00Z,30.2583,-88.2131,0.0,29.7,2 
DISL,ioos:station:DISL:KATA:1,2013-07-01T20:30:00Z,30.2583,-88.2131,0.0,29.69,2 
DISL,ioos:station:DISL:KATA:1,2013-07-01T21:00:00Z,30.2583,-88.2131,0.0,29.69,2 
DISL,ioos:station:DISL:KATA:1,2013-07-01T21:30:00Z,30.2583,-88.2131,0.0,29.72,2 
DISL,ioos:station:DISL:KATA:1,2013-07-01T22:00:00Z,30.2583,-88.2131,0.0,29.74,2 
DISL,ioos:station:DISL:KATA:1,2013-07-01T22:30:00Z,30.2583,-88.2131,0.0,29.72,2 
DISL,ioos:station:DISL:KATA:1,2013-07-01T23:00:00Z,30.2583,-88.2131,0.0,29.75,2 
DISL,ioos:station:DISL:KATA:1,2013-07-01T23:30:00Z,30.2583,-88.2131,0.0,29.76,2 
DISL,ioos:station:DISL:KATA:1,2013-07-02T00:00:00Z,30.2583,-88.2131,0.0,29.75,2 
DISL,ioos:station:DISL:KATA:1,2013-07-02T00:30:00Z,30.2583,-88.2131,0.0,29.76,2 
DISL,ioos:station:DISL:KATA:1,2013-07-02T01:00:00Z,30.2583,-88.2131,0.0,29.76,2 
DISL,ioos:station:DISL:KATA:1,2013-07-02T01:30:00Z,30.2583,-88.2131,0.0,29.75,2 
DISL,ioos:station:DISL:KATA:1,2013-07-02T02:00:00Z,30.2583,-88.2131,0.0,29.74,2 
DISL,ioos:station:DISL:KATA:1,2013-07-02T02:30:00Z,30.2583,-88.2131,0.0,29.7,2 
DISL,ioos:station:DISL:KATA:1,2013-07-02T03:00:00Z,30.2583,-88.2131,0.0,29.64,2 
DISL,ioos:station:DISL:KATA:1,2013-07-02T03:30:00Z,30.2583,-88.2131,0.0,29.64,2 
DISL,ioos:station:DISL:KATA:1,2013-07-02T04:00:00Z,30.2583,-88.2131,0.0,29.72,2 
DISL,ioos:station:DISL:KATA:1,2013-07-02T04:30:00Z,30.2583,-88.2131,0.0,29.73,2 
DISL,ioos:station:DISL:KATA:1,2013-07-02T05:00:00Z,30.2583,-88.2131,0.0,29.7,2 
DISL,ioos:station:DISL:KATA:1,2013-07-02T05:30:00Z,30.2583,-88.2131,0.0,29.71,2 
DISL,ioos:station:DISL:KATA:1,2013-07-02T06:00:00Z,30.2583,-88.2131,0.0,29.67,2 
DISL,ioos:station:DISL:KATA:1,2013-07-02T06:30:00Z,30.2583,-88.2131,0.0,29.63,2 
DISL,ioos:station:DISL:KATA:1,2013-07-02T07:00:00Z,30.2583,-88.2131,0.0,29.58,2 
DISL,ioos:station:DISL:KATA:1,2013-07-02T07:30:00Z,30.2583,-88.2131,0.0,29.55,2 
DISL,ioos:station:DISL:KATA:1,2013-07-02T08:00:00Z,30.2583,-88.2131,0.0,29.54,2 
DISL,ioos:station:DISL:KATA:1,2013-07-02T08:30:00Z,30.2583,-88.2131,0.0,29.45,2 
DISL,ioos:station:DISL:KATA:1,2013-07-02T09:00:00Z,30.2583,-88.2131,0.0,29.44,2 
DISL,ioos:station:DISL:KATA:1,2013-07-02T09:30:00Z,30.2583,-88.2131,0.0,29.44,2 
DISL,ioos:station:DISL:KATA:1,2013-07-02T10:00:00Z,30.2583,-88.2131,0.0,29.43,2 
DISL,ioos:station:DISL:KATA:1,2013-07-02T10:30:00Z,30.2583,-88.2131,0.0,29.44,2 
DISL,ioos:station:DISL:KATA:1,2013-07-02T11:00:00Z,30.2583,-88.2131,0.0,29.42,2 
DISL,ioos:station:DISL:KATA:1,2013-07-02T11:30:00Z,30.2583,-88.2131,0.0,29.4,2 
DISL,ioos:station:DISL:KATA:1,2013-07-02T12:00:00Z,30.2583,-88.2131,0.0,29.41,2 
DISL,ioos:station:DISL:KATA:1,2013-07-02T12:30:00Z,30.2583,-88.2131,0.0,29.43,2 
DISL,ioos:station:DISL:KATA:1,2013-07-02T13:00:00Z,30.2583,-88.2131,0.0,29.45,2 
DISL,ioos:station:DISL:KATA:1,2013-07-02T13:30:00Z,30.2583,-88.2131,0.0,29.46,2 
DISL,ioos:station:DISL:KATA:1,2013-07-02T14:00:00Z,30.2583,-88.2131,0.0,29.46,2 
DISL,ioos:station:DISL:KATA:1,2013-07-02T14:30:00Z,30.2583,-88.2131,0.0,29.45,2 
DISL,ioos:station:DISL:KATA:1,2013-07-02T15:00:00Z,30.2583,-88.2131,0.0,29.51,2 
DISL,ioos:station:DISL:KATA:1,2013-07-02T15:30:00Z,30.2583,-88.2131,0.0,29.53,2 
DISL,ioos:station:DISL:KATA:1,2013-07-02T16:00:00Z,30.2583,-88.2131,0.0,29.41,2 
DISL,ioos:station:DISL:KATA:1,2013-07-02T16:30:00Z,30.2583,-88.2131,0.0,29.33,2 
DISL,ioos:station:DISL:KATA:1,2013-07-02T17:00:00Z,30.2583,-88.2131,0.0,29.44,2 
DISL,ioos:station:DISL:KATA:1,2013-07-02T17:30:00Z,30.2583,-88.2131,0.0,29.51,2 
DISL,ioos:station:DISL:KATA:1,2013-07-02T18:00:00Z,30.2583,-88.2131,0.0,29.45,2 
DISL,ioos:station:DISL:KATA:1,2013-07-02T18:30:00Z,30.2583,-88.2131,0.0,29.44,2 
DISL,ioos:station:DISL:KATA:1,2013-07-02T19:00:00Z,30.2583,-88.2131,0.0,29.45,2 
DISL,ioos:station:DISL:KATA:1,2013-07-02T19:30:00Z,30.2583,-88.2131,0.0,29.53,2 
DISL,ioos:station:DISL:KATA:1,2013-07-02T20:00:00Z,30.2583,-88.2131,0.0,29.55,2 
DISL,ioos:station:DISL:KATA:1,2013-07-02T20:30:00Z,30.2583,-88.2131,0.0,29.55,2 
DISL,ioos:station:DISL:KATA:1,2013-07-02T21:00:00Z,30.2583,-88.2131,0.0,29.55,2 
DISL,ioos:station:DISL:KATA:1,2013-07-02T21:30:00Z,30.2583,-88.2131,0.0,29.54,2 
DISL,ioos:station:DISL:KATA:1,2013-07-02T22:00:00Z,30.2583,-88.2131,0.0,29.53,2 
DISL,ioos:station:DISL:KATA:1,2013-07-02T22:30:00Z,30.2583,-88.2131,0.0,29.53,2 
DISL,ioos:station:DISL:KATA:1,2013-07-02T23:00:00Z,30.2583,-88.2131,0.0,29.54,2 
DISL,ioos:station:DISL:KATA:1,2013-07-02T23:30:00Z,30.2583,-88.2131,0.0,29.56,2 
DISL,ioos:station:DISL:KATA:1,2013-07-03T00:00:00Z,30.2583,-88.2131,0.0,29.56,2 
DISL,ioos:station:DISL:KATA:1,2013-07-03T00:30:00Z,30.2583,-88.2131,0.0,29.49,2 
DISL,ioos:station:DISL:KATA:1,2013-07-03T01:00:00Z,30.2583,-88.2131,0.0,29.43,2 
DISL,ioos:station:DISL:KATA:1,2013-07-03T01:30:00Z,30.2583,-88.2131,0.0,29.43,2 
DISL,ioos:station:DISL:KATA:1,2013-07-03T02:00:00Z,30.2583,-88.2131,0.0,29.44,2 
DISL,ioos:station:DISL:KATA:1,2013-07-03T02:30:00Z,30.2583,-88.2131,0.0,29.45,2 
DISL,ioos:station:DISL:KATA:1,2013-07-03T03:00:00Z,30.2583,-88.2131,0.0,29.46,2 
DISL,ioos:station:DISL:KATA:1,2013-07-03T03:30:00Z,30.2583,-88.2131,0.0,29.45,2 
DISL,ioos:station:DISL:KATA:1,2013-07-03T04:00:00Z,30.2583,-88.2131,0.0,29.45,2 
DISL,ioos:station:DISL:KATA:1,2013-07-03T04:30:00Z,30.2583,-88.2131,0.0,29.47,2 
DISL,ioos:station:DISL:KATA:1,2013-07-03T05:00:00Z,30.2583,-88.2131,0.0,29.56,2 
DISL,ioos:station:DISL:KATA:1,2013-07-03T05:30:00Z,30.2583,-88.2131,0.0,29.58,2 
DISL,ioos:station:DISL:KATA:1,2013-07-03T06:00:00Z,30.2583,-88.2131,0.0,29.58,2 
DISL,ioos:station:DISL:KATA:1,2013-07-03T06:30:00Z,30.2583,-88.2131,0.0,29.54,2 
DISL,ioos:station:DISL:KATA:1,2013-07-03T07:00:00Z,30.2583,-88.2131,0.0,29.55,2 
DISL,ioos:station:DISL:KATA:1,2013-07-03T07:30:00Z,30.2583,-88.2131,0.0,29.56,2 
DISL,ioos:station:DISL:KATA:1,2013-07-03T08:00:00Z,30.2583,-88.2131,0.0,29.58,2 
DISL,ioos:station:DISL:KATA:1,2013-07-03T08:30:00Z,30.2583,-88.2131,0.0,29.41,2 
DISL,ioos:station:DISL:KATA:1,2013-07-03T09:00:00Z,30.2583,-88.2131,0.0,29.21,2 
DISL,ioos:station:DISL:KATA:1,2013-07-03T09:30:00Z,30.2583,-88.2131,0.0,29.07,2 
DISL,ioos:station:DISL:KATA:1,2013-07-03T10:00:00Z,30.2583,-88.2131,0.0,28.88,2 
DISL,ioos:station:DISL:KATA:1,2013-07-03T10:30:00Z,30.2583,-88.2131,0.0,28.75,2 
DISL,ioos:station:DISL:KATA:1,2013-07-03T11:00:00Z,30.2583,-88.2131,0.0,28.68,2 
DISL,ioos:station:DISL:KATA:1,2013-07-03T11:30:00Z,30.2583,-88.2131,0.0,28.56,2 
DISL,ioos:station:DISL:KATA:1,2013-07-03T12:00:00Z,30.2583,-88.2131,0.0,28.39,2 
DISL,ioos:station:DISL:KATA:1,2013-07-03T12:30:00Z,30.2583,-88.2131,0.0,28.29,2 
DISL,ioos:station:DISL:KATA:1,2013-07-03T13:00:00Z,30.2583,-88.2131,0.0,28.13,2 
DISL,ioos:station:DISL:KATA:1,2013-07-03T13:30:00Z,30.2583,-88.2131,0.0,28.01,2 
DISL,ioos:station:DISL:KATA:1,2013-07-03T14:00:00Z,30.2583,-88.2131,0.0,28.03,2 
DISL,ioos:station:DISL:KATA:1,2013-07-03T14:30:00Z,30.2583,-88.2131,0.0,27.94,2 
DISL,ioos:station:DISL:KATA:1,2013-07-03T15:00:00Z,30.2583,-88.2131,0.0,27.86,2 
DISL,ioos:station:DISL:KATA:1,2013-07-03T15:30:00Z,30.2583,-88.2131,0.0,27.82,2 
DISL,ioos:station:DISL:KATA:1,2013-07-03T16:00:00Z,30.2583,-88.2131,0.0,27.73,2 
DISL,ioos:station:DISL:KATA:1,2013-07-03T16:30:00Z,30.2583,-88.2131,0.0,27.69,2 
DISL,ioos:station:DISL:KATA:1,2013-07-03T17:00:00Z,30.2583,-88.2131,0.0,27.68,2 
DISL,ioos:station:DISL:KATA:1,2013-07-03T17:30:00Z,30.2583,-88.2131,0.0,27.65,2 
DISL,ioos:station:DISL:KATA:1,2013-07-03T18:00:00Z,30.2583,-88.2131,0.0,27.57,2 
DISL,ioos:station:DISL:KATA:1,2013-07-03T18:30:00Z,30.2583,-88.2131,0.0,27.47,2 
DISL,ioos:station:DISL:KATA:1,2013-07-03T19:00:00Z,30.2583,-88.2131,0.0,27.41,2 
DISL,ioos:station:DISL:KATA:1,2013-07-03T19:30:00Z,30.2583,-88.2131,0.0,27.32,2 
DISL,ioos:station:DISL:KATA:1,2013-07-03T20:00:00Z,30.2583,-88.2131,0.0,27.23,2 
DISL,ioos:station:DISL:KATA:1,2013-07-03T20:30:00Z,30.2583,-88.2131,0.0,27.12,2 
DISL,ioos:station:DISL:KATA:1,2013-07-03T21:00:00Z,30.2583,-88.2131,0.0,26.99,2 
DISL,ioos:station:DISL:KATA:1,2013-07-03T21:30:00Z,30.2583,-88.2131,0.0,26.87,2 
DISL,ioos:station:DISL:KATA:1,2013-07-03T22:00:00Z,30.2583,-88.2131,0.0,26.77,2 
DISL,ioos:station:DISL:KATA:1,2013-07-03T22:30:00Z,30.2583,-88.2131,0.0,26.71,2 
DISL,ioos:station:DISL:KATA:1,2013-07-03T23:00:00Z,30.2583,-88.2131,0.0,26.65,2 
DISL,ioos:station:DISL:KATA:1,2013-07-03T23:30:00Z,30.2583,-88.2131,0.0,26.61,2 
DISL,ioos:station:DISL:KATA:1,2013-07-04T00:00:00Z,30.2583,-88.2131,0.0,26.58,2 
DISL,ioos:station:DISL:KATA:1,2013-07-04T00:30:00Z,30.2583,-88.2131,0.0,26.57,2 
DISL,ioos:station:DISL:KATA:1,2013-07-04T01:00:00Z,30.2583,-88.2131,0.0,26.53,2 
DISL,ioos:station:DISL:KATA:1,2013-07-04T01:30:00Z,30.2583,-88.2131,0.0,26.48,2 
DISL,ioos:station:DISL:KATA:1,2013-07-04T02:00:00Z,30.2583,-88.2131,0.0,26.46,2 
DISL,ioos:station:DISL:KATA:1,2013-07-04T02:30:00Z,30.2583,-88.2131,0.0,26.46,2 
DISL,ioos:station:DISL:KATA:1,2013-07-04T03:00:00Z,30.2583,-88.2131,0.0,26.46,2 
DISL,ioos:station:DISL:KATA:1,2013-07-04T03:30:00Z,30.2583,-88.2131,0.0,26.45,2 
DISL,ioos:station:DISL:KATA:1,2013-07-04T04:00:00Z,30.2583,-88.2131,0.0,26.44,2 
DISL,ioos:station:DISL:KATA:1,2013-07-04T04:30:00Z,30.2583,-88.2131,0.0,26.44,2 
DISL,ioos:station:DISL:KATA:1,2013-07-04T05:00:00Z,30.2583,-88.2131,0.0,26.44,2 
DISL,ioos:station:DISL:KATA:1,2013-07-04T05:30:00Z,30.2583,-88.2131,0.0,26.44,2 
DISL,ioos:station:DISL:KATA:1,2013-07-04T06:00:00Z,30.2583,-88.2131,0.0,26.45,2 
DISL,ioos:station:DISL:KATA:1,2013-07-04T06:30:00Z,30.2583,-88.2131,0.0,26.43,2 
DISL,ioos:station:DISL:KATA:1,2013-07-04T07:00:00Z,30.2583,-88.2131,0.0,26.44,2 
DISL,ioos:station:DISL:KATA:1,2013-07-04T07:30:00Z,30.2583,-88.2131,0.0,26.48,2 
DISL,ioos:station:DISL:KATA:1,2013-07-04T08:00:00Z,30.2583,-88.2131,0.0,26.49,2 
DISL,ioos:station:DISL:KATA:1,2013-07-04T08:30:00Z,30.2583,-88.2131,0.0,26.47,2 
DISL,ioos:station:DISL:KATA:1,2013-07-04T09:00:00Z,30.2583,-88.2131,0.0,26.46,2 
DISL,ioos:station:DISL:KATA:1,2013-07-04T09:30:00Z,30.2583,-88.2131,0.0,26.43,2 
DISL,ioos:station:DISL:KATA:1,2013-07-04T10:00:00Z,30.2583,-88.2131,0.0,26.43,2 
DISL,ioos:station:DISL:KATA:1,2013-07-04T10:30:00Z,30.2583,-88.2131,0.0,26.39,2 
DISL,ioos:station:DISL:KATA:1,2013-07-04T11:00:00Z,30.2583,-88.2131,0.0,26.4,2 
DISL,ioos:station:DISL:KATA:1,2013-07-04T11:30:00Z,30.2583,-88.2131,0.0,26.37,2 
DISL,ioos:station:DISL:KATA:1,2013-07-04T12:00:00Z,30.2583,-88.2131,0.0,26.35,2 
DISL,ioos:station:DISL:KATA:1,2013-07-04T12:30:00Z,30.2583,-88.2131,0.0,26.34,2 
DISL,ioos:station:DISL:KATA:1,2013-07-04T13:00:00Z,30.2583,-88.2131,0.0,26.36,2 
DISL,ioos:station:DISL:KATA:1,2013-07-04T13:30:00Z,30.2583,-88.2131,0.0,26.42,2 
DISL,ioos:station:DISL:KATA:1,2013-07-04T14:00:00Z,30.2583,-88.2131,0.0,26.44,2 
DISL,ioos:station:DISL:KATA:1,2013-07-04T14:30:00Z,30.2583,-88.2131,0.0,26.46,2 
DISL,ioos:station:DISL:KATA:1,2013-07-04T15:00:00Z,30.2583,-88.2131,0.0,26.45,2 
DISL,ioos:station:DISL:KATA:1,2013-07-04T15:30:00Z,30.2583,-88.2131,0.0,26.46,2 
DISL,ioos:station:DISL:KATA:1,2013-07-04T16:00:00Z,30.2583,-88.2131,0.0,26.44,2 
DISL,ioos:station:DISL:KATA:1,2013-07-04T16:30:00Z,30.2583,-88.2131,0.0,26.45,2 
DISL,ioos:station:DISL:KATA:1,2013-07-04T17:00:00Z,30.2583,-88.2131,0.0,26.46,2 
DISL,ioos:station:DISL:KATA:1,2013-07-04T17:30:00Z,30.2583,-88.2131,0.0,26.46,2 
DISL,ioos:station:DISL:KATA:1,2013-07-04T18:00:00Z,30.2583,-88.2131,0.0,26.48,2 
DISL,ioos:station:DISL:KATA:1,2013-07-04T18:30:00Z,30.2583,-88.2131,0.0,26.49,2 
DISL,ioos:station:DISL:KATA:1,2013-07-04T19:00:00Z,30.2583,-88.2131,0.0,26.52,2 
DISL,ioos:station:DISL:KATA:1,2013-07-04T19:30:00Z,30.2583,-88.2131,0.0,26.55,2 
DISL,ioos:station:DISL:KATA:1,2013-07-04T20:00:00Z,30.2583,-88.2131,0.0,26.57,2 
DISL,ioos:station:DISL:KATA:1,2013-07-04T20:30:00Z,30.2583,-88.2131,0.0,26.6,2 
DISL,ioos:station:DISL:KATA:1,2013-07-04T21:00:00Z,30.2583,-88.2131,0.0,26.66,2 
DISL,ioos:station:DISL:KATA:1,2013-07-04T21:30:00Z,30.2583,-88.2131,0.0,26.68,2 
DISL,ioos:station:DISL:KATA:1,2013-07-04T22:00:00Z,30.2583,-88.2131,0.0,26.73,2 
DISL,ioos:station:DISL:KATA:1,2013-07-04T22:30:00Z,30.2583,-88.2131,0.0,26.81,2 
DISL,ioos:station:DISL:KATA:1,2013-07-04T23:00:00Z,30.2583,-88.2131,0.0,26.88,2 
DISL,ioos:station:DISL:KATA:1,2013-07-04T23:30:00Z,30.2583,-88.2131,0.0,26.93,2 
DISL,ioos:station:DISL:KATA:1,2013-07-05T00:00:00Z,30.2583,-88.2131,0.0,26.92,2 
DISL,ioos:station:DISL:KATA:1,2013-07-05T00:30:00Z,30.2583,-88.2131,0.0,26.94,2 
DISL,ioos:station:DISL:KATA:1,2013-07-05T01:00:00Z,30.2583,-88.2131,0.0,26.95,2 
DISL,ioos:station:DISL:KATA:1,2013-07-05T01:30:00Z,30.2583,-88.2131,0.0,26.98,2 
DISL,ioos:station:DISL:KATA:1,2013-07-05T02:00:00Z,30.2583,-88.2131,0.0,26.97,2 
DISL,ioos:station:DISL:KATA:1,2013-07-05T02:30:00Z,30.2583,-88.2131,0.0,26.96,2 
DISL,ioos:station:DISL:KATA:1,2013-07-05T03:00:00Z,30.2583,-88.2131,0.0,26.89,2 
DISL,ioos:station:DISL:KATA:1,2013-07-05T03:30:00Z,30.2583,-88.2131,0.0,26.89,2 
DISL,ioos:station:DISL:KATA:1,2013-07-05T04:00:00Z,30.2583,-88.2131,0.0,26.83,2 
DISL,ioos:station:DISL:KATA:1,2013-07-05T04:30:00Z,30.2583,-88.2131,0.0,26.87,2 
DISL,ioos:station:DISL:KATA:1,2013-07-05T05:00:00Z,30.2583,-88.2131,0.0,26.99,2 
DISL,ioos:station:DISL:KATA:1,2013-07-05T05:30:00Z,30.2583,-88.2131,0.0,27.1,2 
DISL,ioos:station:DISL:KATA:1,2013-07-05T06:00:00Z,30.2583,-88.2131,0.0,27.02,2 
DISL,ioos:station:DISL:KATA:1,2013-07-05T06:30:00Z,30.2583,-88.2131,0.0,27.07,2 
DISL,ioos:station:DISL:KATA:1,2013-07-05T07:00:00Z,30.2583,-88.2131,0.0,27.07,2 
DISL,ioos:station:DISL:KATA:1,2013-07-05T07:30:00Z,30.2583,-88.2131,0.0,26.97,2 
DISL,ioos:station:DISL:KATA:1,2013-07-05T08:00:00Z,30.2583,-88.2131,0.0,26.9,2 
DISL,ioos:station:DISL:KATA:1,2013-07-05T08:30:00Z,30.2583,-88.2131,0.0,26.79,2 
DISL,ioos:station:DISL:KATA:1,2013-07-05T09:00:00Z,30.2583,-88.2131,0.0,26.73,2 
DISL,ioos:station:DISL:KATA:1,2013-07-05T09:30:00Z,30.2583,-88.2131,0.0,26.67,2 
DISL,ioos:station:DISL:KATA:1,2013-07-05T10:00:00Z,30.2583,-88.2131,0.0,26.66,2 
DISL,ioos:station:DISL:KATA:1,2013-07-05T10:30:00Z,30.2583,-88.2131,0.0,26.66,2 
DISL,ioos:station:DISL:KATA:1,2013-07-05T11:00:00Z,30.2583,-88.2131,0.0,26.61,2 
DISL,ioos:station:DISL:KATA:1,2013-07-05T11:30:00Z,30.2583,-88.2131,0.0,26.59,2 
DISL,ioos:station:DISL:KATA:1,2013-07-05T12:00:00Z,30.2583,-88.2131,0.0,26.62,2 
DISL,ioos:station:DISL:KATA:1,2013-07-05T12:30:00Z,30.2583,-88.2131,0.0,26.63,2 
DISL,ioos:station:DISL:KATA:1,2013-07-05T13:00:00Z,30.2583,-88.2131,0.0,26.61,2 
DISL,ioos:station:DISL:KATA:1,2013-07-05T13:30:00Z,30.2583,-88.2131,0.0,26.63,2 
DISL,ioos:station:DISL:KATA:1,2013-07-05T14:00:00Z,30.2583,-88.2131,0.0,26.62,2 
DISL,ioos:station:DISL:KATA:1,2013-07-05T14:30:00Z,30.2583,-88.2131,0.0,26.62,2 
DISL,ioos:station:DISL:KATA:1,2013-07-05T15:00:00Z,30.2583,-88.2131,0.0,26.62,2 
DISL,ioos:station:DISL:KATA:1,2013-07-05T15:30:00Z,30.2583,-88.2131,0.0,26.68,2 
DISL,ioos:station:DISL:KATA:1,2013-07-05T16:00:00Z,30.2583,-88.2131,0.0,26.69,2 
DISL,ioos:station:DISL:KATA:1,2013-07-05T16:30:00Z,30.2583,-88.2131,0.0,26.69,2 
DISL,ioos:station:DISL:KATA:1,2013-07-05T17:00:00Z,30.2583,-88.2131,0.0,26.71,2 
DISL,ioos:station:DISL:KATA:1,2013-07-05T17:30:00Z,30.2583,-88.2131,0.0,26.73,2 
DISL,ioos:station:DISL:KATA:1,2013-07-05T18:00:00Z,30.2583,-88.2131,0.0,26.74,2 
DISL,ioos:station:DISL:KATA:1,2013-07-05T18:30:00Z,30.2583,-88.2131,0.0,26.77,2 
DISL,ioos:station:DISL:KATA:1,2013-07-05T19:00:00Z,30.2583,-88.2131,0.0,26.79,2 
DISL,ioos:station:DISL:KATA:1,2013-07-05T19:30:00Z,30.2583,-88.2131,0.0,26.84,2 
DISL,ioos:station:DISL:KATA:1,2013-07-05T20:00:00Z,30.2583,-88.2131,0.0,26.84,2 
DISL,ioos:station:DISL:KATA:1,2013-07-05T20:30:00Z,30.2583,-88.2131,0.0,26.84,2 
DISL,ioos:station:DISL:KATA:1,2013-07-05T21:00:00Z,30.2583,-88.2131,0.0,26.8,2 
DISL,ioos:station:DISL:KATA:1,2013-07-05T21:30:00Z,30.2583,-88.2131,0.0,26.79,2 
DISL,ioos:station:DISL:KATA:1,2013-07-05T22:00:00Z,30.2583,-88.2131,0.0,26.8,2 
DISL,ioos:station:DISL:KATA:1,2013-07-05T22:30:00Z,30.2583,-88.2131,0.0,26.8,2 
DISL,ioos:station:DISL:KATA:1,2013-07-05T23:00:00Z,30.2583,-88.2131,0.0,26.79,2 
DISL,ioos:station:DISL:KATA:1,2013-07-05T23:30:00Z,30.2583,-88.2131,0.0,26.79,2 
DISL,ioos:station:DISL:KATA:1,2013-07-06T00:00:00Z,30.2583,-88.2131,0.0,26.8,2 
DISL,ioos:station:DISL:KATA:1,2013-07-06T00:30:00Z,30.2583,-88.2131,0.0,26.83,2 
DISL,ioos:station:DISL:KATA:1,2013-07-06T01:00:00Z,30.2583,-88.2131,0.0,26.86,2 
DISL,ioos:station:DISL:KATA:1,2013-07-06T01:30:00Z,30.2583,-88.2131,0.0,26.86,2 
DISL,ioos:station:DISL:KATA:1,2013-07-06T02:00:00Z,30.2583,-88.2131,0.0,26.73,2 
DISL,ioos:station:DISL:KATA:1,2013-07-06T02:30:00Z,30.2583,-88.2131,0.0,26.7,2 
DISL,ioos:station:DISL:KATA:1,2013-07-06T03:00:00Z,30.2583,-88.2131,0.0,26.36,2 
DISL,ioos:station:DISL:KATA:1,2013-07-06T03:30:00Z,30.2583,-88.2131,0.0,26.46,2 
DISL,ioos:station:DISL:KATA:1,2013-07-06T04:00:00Z,30.2583,-88.2131,0.0,26.44,2 
DISL,ioos:station:DISL:KATA:1,2013-07-06T04:30:00Z,30.2583,-88.2131,0.0,26.4,2 
DISL,ioos:station:DISL:KATA:1,2013-07-06T05:00:00Z,30.2583,-88.2131,0.0,26.38,2 
DISL,ioos:station:DISL:KATA:1,2013-07-06T05:30:00Z,30.2583,-88.2131,0.0,26.33,2 
DISL,ioos:station:DISL:KATA:1,2013-07-06T06:00:00Z,30.2583,-88.2131,0.0,26.23,2 
DISL,ioos:station:DISL:KATA:1,2013-07-06T06:30:00Z,30.2583,-88.2131,0.0,26.27,2 
DISL,ioos:station:DISL:KATA:1,2013-07-06T07:00:00Z,30.2583,-88.2131,0.0,26.26,2 
DISL,ioos:station:DISL:KATA:1,2013-07-06T07:30:00Z,30.2583,-88.2131,0.0,26.27,2 
DISL,ioos:station:DISL:KATA:1,2013-07-06T08:00:00Z,30.2583,-88.2131,0.0,26.24,2 
DISL,ioos:station:DISL:KATA:1,2013-07-06T08:30:00Z,30.2583,-88.2131,0.0,26.21,2 
DISL,ioos:station:DISL:KATA:1,2013-07-06T09:00:00Z,30.2583,-88.2131,0.0,26.18,2 
DISL,ioos:station:DISL:KATA:1,2013-07-06T09:30:00Z,30.2583,-88.2131,0.0,26.13,2 
DISL,ioos:station:DISL:KATA:1,2013-07-06T10:00:00Z,30.2583,-88.2131,0.0,26.12,2 
DISL,ioos:station:DISL:KATA:1,2013-07-06T10:30:00Z,30.2583,-88.2131,0.0,26.14,2 
DISL,ioos:station:DISL:KATA:1,2013-07-06T11:00:00Z,30.2583,-88.2131,0.0,26.15,2 
DISL,ioos:station:DISL:KATA:1,2013-07-06T11:30:00Z,30.2583,-88.2131,0.0,26.14,2 
DISL,ioos:station:DISL:KATA:1,2013-07-06T12:00:00Z,30.2583,-88.2131,0.0,26.14,2 
DISL,ioos:station:DISL:KATA:1,2013-07-06T12:30:00Z,30.2583,-88.2131,0.0,26.15,2 
DISL,ioos:station:DISL:KATA:1,2013-07-06T13:00:00Z,30.2583,-88.2131,0.0,26.17,2 
DISL,ioos:station:DISL:KATA:1,2013-07-06T13:30:00Z,30.2583,-88.2131,0.0,26.18,2 
DISL,ioos:station:DISL:KATA:1,2013-07-06T14:00:00Z,30.2583,-88.2131,0.0,26.17,2 
DISL,ioos:station:DISL:KATA:1,2013-07-06T14:30:00Z,30.2583,-88.2131,0.0,26.17,2 
DISL,ioos:station:DISL:KATA:1,2013-07-06T15:00:00Z,30.2583,-88.2131,0.0,26.16,2 
DISL,ioos:station:DISL:KATA:1,2013-07-06T15:30:00Z,30.2583,-88.2131,0.0,26.15,2 
DISL,ioos:station:DISL:KATA:1,2013-07-06T16:00:00Z,30.2583,-88.2131,0.0,26.16,2 
DISL,ioos:station:DISL:KATA:1,2013-07-06T16:30:00Z,30.2583,-88.2131,0.0,26.16,2 
DISL,ioos:station:DISL:KATA:1,2013-07-06T17:00:00Z,30.2583,-88.2131,0.0,26.13,2 
DISL,ioos:station:DISL:KATA:1,2013-07-06T17:30:00Z,30.2583,-88.2131,0.0,26.11,2 
DISL,ioos:station:DISL:KATA:1,2013-07-06T18:00:00Z,30.2583,-88.2131,0.0,26.12,2 
DISL,ioos:station:DISL:KATA:1,2013-07-06T18:30:00Z,30.2583,-88.2131,0.0,26.14,2 
DISL,ioos:station:DISL:KATA:1,2013-07-06T19:00:00Z,30.2583,-88.2131,0.0,26.17,2 
DISL,ioos:station:DISL:KATA:1,2013-07-06T19:30:00Z,30.2583,-88.2131,0.0,26.21,2 
DISL,ioos:station:DISL:KATA:1,2013-07-06T20:00:00Z,30.2583,-88.2131,0.0,26.23,2 
DISL,ioos:station:DISL:KATA:1,2013-07-06T20:30:00Z,30.2583,-88.2131,0.0,26.25,2 
DISL,ioos:station:DISL:KATA:1,2013-07-06T21:00:00Z,30.2583,-88.2131,0.0,26.24,2 
DISL,ioos:station:DISL:KATA:1,2013-07-06T21:30:00Z,30.2583,-88.2131,0.0,26.22,2 
DISL,ioos:station:DISL:KATA:1,2013-07-06T22:00:00Z,30.2583,-88.2131,0.0,26.23,2 
DISL,ioos:station:DISL:KATA:1,2013-07-06T22:30:00Z,30.2583,-88.2131,0.0,26.24,2 
DISL,ioos:station:DISL:KATA:1,2013-07-06T23:00:00Z,30.2583,-88.2131,0.0,26.26,2 
DISL,ioos:station:DISL:KATA:1,2013-07-06T23:30:00Z,30.2583,-88.2131,0.0,26.27,2 
DISL,ioos:station:DISL:KATA:1,2013-07-07T00:00:00Z,30.2583,-88.2131,0.0,26.25,2 
DISL,ioos:station:DISL:KATA:1,2013-07-07T00:30:00Z,30.2583,-88.2131,0.0,26.25,2 
DISL,ioos:station:DISL:KATA:1,2013-07-07T01:00:00Z,30.2583,-88.2131,0.0,26.26,2 
DISL,ioos:station:DISL:KATA:1,2013-07-07T01:30:00Z,30.2583,-88.2131,0.0,26.26,2 
DISL,ioos:station:DISL:KATA:1,2013-07-07T02:00:00Z,30.2583,-88.2131,0.0,26.22,2 
DISL,ioos:station:DISL:KATA:1,2013-07-07T02:30:00Z,30.2583,-88.2131,0.0,26.18,2 
DISL,ioos:station:DISL:KATA:1,2013-07-07T03:00:00Z,30.2583,-88.2131,0.0,26.18,2 
DISL,ioos:station:DISL:KATA:1,2013-07-07T03:30:00Z,30.2583,-88.2131,0.0,26.16,2 
DISL,ioos:station:DISL:KATA:1,2013-07-07T04:00:00Z,30.2583,-88.2131,0.0,26.16,2 
DISL,ioos:station:DISL:KATA:1,2013-07-07T04:30:00Z,30.2583,-88.2131,0.0,26.17,2 
DISL,ioos:station:DISL:KATA:1,2013-07-07T05:00:00Z,30.2583,-88.2131,0.0,26.16,2 
DISL,ioos:station:DISL:KATA:1,2013-07-07T05:30:00Z,30.2583,-88.2131,0.0,26.12,2 
DISL,ioos:station:DISL:KATA:1,2013-07-07T06:00:00Z,30.2583,-88.2131,0.0,26.08,2 
DISL,ioos:station:DISL:KATA:1,2013-07-07T06:30:00Z,30.2583,-88.2131,0.0,26.07,2 
DISL,ioos:station:DISL:KATA:1,2013-07-07T07:00:00Z,30.2583,-88.2131,0.0,26.09,2 
DISL,ioos:station:DISL:KATA:1,2013-07-07T07:30:00Z,30.2583,-88.2131,0.0,26.1,2 
DISL,ioos:station:DISL:KATA:1,2013-07-07T08:00:00Z,30.2583,-88.2131,0.0,26.1,2 
DISL,ioos:station:DISL:KATA:1,2013-07-07T08:30:00Z,30.2583,-88.2131,0.0,26.08,2 
DISL,ioos:station:DISL:KATA:1,2013-07-07T09:00:00Z,30.2583,-88.2131,0.0,26.07,2 
DISL,ioos:station:DISL:KATA:1,2013-07-07T09:30:00Z,30.2583,-88.2131,0.0,26.07,2 
DISL,ioos:station:DISL:KATA:1,2013-07-07T10:00:00Z,30.2583,-88.2131,0.0,26.07,2 
DISL,ioos:station:DISL:KATA:1,2013-07-07T10:30:00Z,30.2583,-88.2131,0.0,26.05,2 
DISL,ioos:station:DISL:KATA:1,2013-07-07T11:00:00Z,30.2583,-88.2131,0.0,26.04,2 
DISL,ioos:station:DISL:KATA:1,2013-07-07T11:30:00Z,30.2583,-88.2131,0.0,26.03,2 
DISL,ioos:station:DISL:KATA:1,2013-07-07T12:00:00Z,30.2583,-88.2131,0.0,26.03,2 
DISL,ioos:station:DISL:KATA:1,2013-07-07T12:30:00Z,30.2583,-88.2131,0.0,26.05,2 
DISL,ioos:station:DISL:KATA:1,2013-07-07T13:00:00Z,30.2583,-88.2131,0.0,26.05,2 
DISL,ioos:station:DISL:KATA:1,2013-07-07T13:30:00Z,30.2583,-88.2131,0.0,26.05,2 
DISL,ioos:station:DISL:KATA:1,2013-07-07T14:00:00Z,30.2583,-88.2131,0.0,26.05,2 
DISL,ioos:station:DISL:KATA:1,2013-07-07T14:30:00Z,30.2583,-88.2131,0.0,26.06,2 
DISL,ioos:station:DISL:KATA:1,2013-07-07T15:00:00Z,30.2583,-88.2131,0.0,26.07,2 
DISL,ioos:station:DISL:KATA:1,2013-07-07T15:30:00Z,30.2583,-88.2131,0.0,26.08,2 
DISL,ioos:station:DISL:KATA:1,2013-07-07T16:00:00Z,30.2583,-88.2131,0.0,26.1,2 
DISL,ioos:station:DISL:KATA:1,2013-07-07T16:30:00Z,30.2583,-88.2131,0.0,26.11,2 
DISL,ioos:station:DISL:KATA:1,2013-07-07T17:00:00Z,30.2583,-88.2131,0.0,26.12,2 
DISL,ioos:station:DISL:KATA:1,2013-07-07T17:30:00Z,30.2583,-88.2131,0.0,26.13,2 
DISL,ioos:station:DISL:KATA:1,2013-07-07T18:00:00Z,30.2583,-88.2131,0.0,26.12,2 
DISL,ioos:station:DISL:KATA:1,2013-07-07T18:30:00Z,30.2583,-88.2131,0.0,26.11,2 
DISL,ioos:station:DISL:KATA:1,2013-07-07T19:00:00Z,30.2583,-88.2131,0.0,26.11,2 
DISL,ioos:station:DISL:KATA:1,2013-07-07T19:30:00Z,30.2583,-88.2131,0.0,26.13,2 
DISL,ioos:station:DISL:KATA:1,2013-07-07T20:00:00Z,30.2583,-88.2131,0.0,26.14,2 
DISL,ioos:station:DISL:KATA:1,2013-07-07T20:30:00Z,30.2583,-88.2131,0.0,26.14,2 
DISL,ioos:station:DISL:KATA:1,2013-07-07T21:00:00Z,30.2583,-88.2131,0.0,26.17,2 
DISL,ioos:station:DISL:KATA:1,2013-07-07T21:30:00Z,30.2583,-88.2131,0.0,26.18,2 
DISL,ioos:station:DISL:KATA:1,2013-07-07T22:00:00Z,30.2583,-88.2131,0.0,26.2,2 
DISL,ioos:station:DISL:KATA:1,2013-07-07T22:30:00Z,30.2583,-88.2131,0.0,26.23,2 